{"data":{"norad_id":64810,"epoch":"2026-05-24T19:44:35.848896Z","epoch_age_seconds":86313,"freshness":"FRESH","line1":"1 64810U 25150W   26144.82263714  .00003963  00000+0  33964-3 0  9990","line2":"2 64810  70.0004 302.3829 0002809 268.7681  91.3156 14.98343918 47923","mean_motion":14.98343918,"eccentricity":0.0002809,"inclination_deg":70.0004,"raan_deg":302.3829,"arg_perigee_deg":268.7681,"mean_anomaly_deg":91.3156,"bstar":0.00033964,"rev_number":4792,"period_min":96.106106395261,"perigee_km":570.06055391753,"apogee_km":573.96514810383,"semimajor_km":6950.1498510107,"source":"CELESTRAK","updated_at":"2026-05-25T13:38:20.569202Z"}}